Hourly Weather Holubcha

Today, 13 April, Tuesday

Time Temperature Precipitation Wind Pressure Humidity
00:00 +8°C° 0 mm 2 mps 738 mmHg 69%
01:00 +7°C° 0 mm 2 mps 738 mmHg 71%
02:00 +7°C° 0 mm 2 mps 738 mmHg 73%
03:00 +7°C° 0 mm 2 mps 738 mmHg 75%
04:00 +6°C° 0 mm 2 mps 738 mmHg 76%
05:00 +6°C° 0 mm 2 mps 738 mmHg 77%
06:00 +7°C° 0 mm 2 mps 738 mmHg 73%
07:00 +9°C° 0 mm 2 mps 738 mmHg 69%
08:00 +10°C° 0 mm 2 mps 738 mmHg 66%
09:00 +12°C° 0 mm 2 mps 738 mmHg 60%
10:00 +14°C° 0 mm 2 mps 737 mmHg 54%
11:00 +16°C° 0 mm 2 mps 737 mmHg 48%
12:00 +16°C° 0 mm 1 mps 737 mmHg 45%
13:00 +18°C° 0 mm 1 mps 737 mmHg 42%
14:00 +17°C° 0 mm 0 mps 736 mmHg 40%
15:00 +18°C° 0 mm 1 mps 736 mmHg 44%
16:00 +17°C° 0 mm 2 mps 736 mmHg 48%
17:00 +16°C° 0 mm 3 mps 735 mmHg 52%
18:00 +12°C° 0 mm 4 mps 736 mmHg 71%
19:00 +11°C° 0 mm 3 mps 736 mmHg 74%
20:00 +10°C° 0 mm 3 mps 736 mmHg 78%
21:00 +10°C° 0 mm 2 mps 736 mmHg 79%
22:00 +10°C° 0 mm 2 mps 735 mmHg 79%
23:00 +9°C° 0 mm 2 mps 735 mmHg 80%

Tomorrow, 14 April, Wednesday

Time Temperature Precipitation Wind Pressure Humidity
00:00 +9°C° 0 mm 2 mps 735 mmHg 80%
01:00 +9°C° 0 mm 2 mps 735 mmHg 80%
02:00 +9°C° 0 mm 2 mps 734 mmHg 79%
03:00 +9°C° 0 mm 2 mps 734 mmHg 80%
04:00 +8°C° 0 mm 2 mps 734 mmHg 81%
05:00 +8°C° 0 mm 2 mps 734 mmHg 82%
06:00 +8°C° 0.1 mm 2 mps 734 mmHg 82%
07:00 +8°C° 0.1 mm 3 mps 734 mmHg 82%
08:00 +8°C° 0.1 mm 3 mps 734 mmHg 83%
09:00 +9°C° 0.1 mm 3 mps 734 mmHg 81%
10:00 +9°C° 0.1 mm 3 mps 734 mmHg 80%
11:00 +9°C° 0.1 mm 3 mps 734 mmHg 79%
12:00 +9°C° 0.2 mm 3 mps 734 mmHg 79%
13:00 +9°C° 0.2 mm 2 mps 734 mmHg 79%
14:00 +10°C° 0.2 mm 2 mps 734 mmHg 78%
15:00 +10°C° 0.1 mm 2 mps 733 mmHg 77%
16:00 +10°C° 0.1 mm 2 mps 733 mmHg 75%
17:00 +12°C° 0.1 mm 2 mps 733 mmHg 74%
18:00 +10°C° 0.1 mm 2 mps 733 mmHg 78%
19:00 +9°C° 0.1 mm 2 mps 733 mmHg 83%
20:00 +8°C° 0.1 mm 2 mps 733 mmHg 87%
21:00 +7°C° 0 mm 2 mps 733 mmHg 89%
22:00 +7°C° 0 mm 2 mps 733 mmHg 91%
23:00 +6°C° 0 mm 2 mps 733 mmHg 93%

Day after tomorrow, 15 April, Thursday

Time Temperature Precipitation Wind Pressure Humidity
00:00 +6°C° 0 mm 2 mps 733 mmHg 93%
01:00 +6°C° 0 mm 2 mps 733 mmHg 93%
02:00 +6°C° 0 mm 2 mps 733 mmHg 93%
03:00 +6°C° 0.1 mm 2 mps 733 mmHg 93%
04:00 +7°C° 0.1 mm 1 mps 733 mmHg 94%
05:00 +7°C° 0.1 mm 1 mps 733 mmHg 94%
06:00 +7°C° 1 mm 1 mps 733 mmHg 95%
07:00 +6°C° 1 mm 2 mps 733 mmHg 95%
08:00 +6°C° 1 mm 2 mps 733 mmHg 96%
09:00 +7°C° 0.7 mm 2 mps 733 mmHg 95%
10:00 +7°C° 0.7 mm 2 mps 733 mmHg 94%
11:00 +7°C° 0.7 mm 3 mps 733 mmHg 93%
12:00 +8°C° 0.5 mm 2 mps 733 mmHg 92%
13:00 +8°C° 0.5 mm 2 mps 733 mmHg 92%
14:00 +9°C° 0.5 mm 1 mps 733 mmHg 91%
15:00 +8°C° 0.4 mm 2 mps 733 mmHg 91%
16:00 +8°C° 0.4 mm 3 mps 732 mmHg 90%
17:00 +7°C° 0.4 mm 4 mps 732 mmHg 90%
18:00 +6°C° 0.2 mm 4 mps 732 mmHg 92%
19:00 +6°C° 0.2 mm 4 mps 732 mmHg 94%
20:00 +5°C° 0.2 mm 4 mps 732 mmHg 96%
21:00 +5°C° 0.2 mm 4 mps 732 mmHg 96%
22:00 +5°C° 0.2 mm 4 mps 732 mmHg 96%
23:00 +5°C° 0.2 mm 4 mps 732 mmHg 96%

16 April, Friday

Time Temperature Precipitation Wind Pressure Humidity
00:00 +5°C° 0 mm 3 mps 731 mmHg 96%
01:00 +5°C° 0 mm 3 mps 731 mmHg 96%
02:00 +5°C° 0 mm 3 mps 731 mmHg 96%
03:00 +5°C° 0 mm 3 mps 731 mmHg 96%
04:00 +5°C° 0 mm 3 mps 731 mmHg 96%
05:00 +5°C° 0 mm 3 mps 731 mmHg 96%
06:00 +5°C° 0.5 mm 3 mps 731 mmHg 96%
07:00 +7°C° 0.5 mm 3 mps 731 mmHg 96%
08:00 +7°C° 0.5 mm 3 mps 731 mmHg 96%
09:00 +7°C° 0.7 mm 3 mps 731 mmHg 94%
10:00 +7°C° 0.7 mm 3 mps 731 mmHg 92%
11:00 +7°C° 0.7 mm 3 mps 731 mmHg 90%
12:00 +6°C° 0.3 mm 4 mps 731 mmHg 88%
13:00 +6°C° 0.3 mm 4 mps 732 mmHg 87%
14:00 +6°C° 0.3 mm 4 mps 732 mmHg 86%
15:00 +6°C° 0.1 mm 4 mps 732 mmHg 85%
16:00 +7°C° 0.1 mm 3 mps 733 mmHg 84%
17:00 +7°C° 0.1 mm 3 mps 733 mmHg 83%
18:00 +7°C° 0.1 mm 2 mps 733 mmHg 85%
19:00 +6°C° 0.1 mm 2 mps 734 mmHg 87%
20:00 +7°C° 0.1 mm 1 mps 734 mmHg 89%
21:00 +7°C° 0.1 mm 1 mps 734 mmHg 90%
22:00 +7°C° 0.1 mm 1 mps 735 mmHg 90%
23:00 +5°C° 0.1 mm 2 mps 735 mmHg 91%

17 April, Saturday

Time Temperature Precipitation Wind Pressure Humidity
00:00 +5°C° 0.1 mm 2 mps 735 mmHg 91%
01:00 +5°C° 0.1 mm 2 mps 735 mmHg 91%
02:00 +5°C° 0.1 mm 2 mps 736 mmHg 91%
03:00 +5°C° 0 mm 2 mps 736 mmHg 92%
04:00 +5°C° 0 mm 2 mps 736 mmHg 92%
05:00 +3°C° 0 mm 3 mps 736 mmHg 92%
06:00 +3°C° 0 mm 3 mps 737 mmHg 90%
07:00 +3°C° 0 mm 3 mps 738 mmHg 89%
08:00 +3°C° 0 mm 3 mps 738 mmHg 88%
09:00 +4°C° 0.1 mm 3 mps 738 mmHg 85%
10:00 +5°C° 0.1 mm 3 mps 739 mmHg 82%
11:00 +5°C° 0.1 mm 3 mps 739 mmHg 80%
12:00 +7°C° 0 mm 3 mps 739 mmHg 78%
13:00 +7°C° 0 mm 3 mps 739 mmHg 76%
14:00 +7°C° 0 mm 3 mps 739 mmHg 74%
15:00 +8°C° 0 mm 2 mps 739 mmHg 73%
16:00 +8°C° 0 mm 2 mps 740 mmHg 72%
17:00 +9°C° 0 mm 1 mps 740 mmHg 71%
18:00 +8°C° 0 mm 1 mps 740 mmHg 75%
19:00 +7°C° 0 mm 1 mps 740 mmHg 79%
20:00 +7°C° 0 mm 1 mps 740 mmHg 83%
21:00 +7°C° 0 mm 1 mps 740 mmHg 84%
22:00 +7°C° 0 mm 1 mps 740 mmHg 86%
23:00 +7°C° 0 mm 1 mps 740 mmHg 87%

18 April, Sunday

Time Temperature Precipitation Wind Pressure Humidity
00:00 +7°C° 0.2 mm 1 mps 740 mmHg 89%
01:00 +7°C° 0.2 mm 1 mps 740 mmHg 90%
02:00 +7°C° 0.2 mm 1 mps 740 mmHg 92%
03:00 +7°C° 0.1 mm 1 mps 740 mmHg 92%
04:00 +7°C° 0.1 mm 1 mps 740 mmHg 92%
05:00 +7°C° 0.1 mm 1 mps 740 mmHg 92%
06:00 +7°C° 0 mm 1 mps 741 mmHg 90%
07:00 +7°C° 0 mm 1 mps 741 mmHg 88%
08:00 +7°C° 0 mm 2 mps 741 mmHg 85%
09:00 +8°C° 0.1 mm 3 mps 742 mmHg 79%
10:00 +9°C° 0.1 mm 3 mps 742 mmHg 73%
11:00 +10°C° 0.1 mm 4 mps 742 mmHg 67%
12:00 +10°C° 0 mm 4 mps 742 mmHg 64%
13:00 +10°C° 0 mm 4 mps 742 mmHg 60%
14:00 +10°C° 0 mm 5 mps 742 mmHg 57%
15:00 +11°C° 0 mm 4 mps 742 mmHg 61%
16:00 +10°C° 0 mm 4 mps 742 mmHg 65%
17:00 +10°C° 0 mm 3 mps 742 mmHg 69%
18:00 +10°C° 0.1 mm 3 mps 742 mmHg 72%
19:00 +9°C° 0.1 mm 3 mps 743 mmHg 74%
20:00 +8°C° 0.1 mm 3 mps 743 mmHg 77%
21:00 +8°C° 0 mm 3 mps 743 mmHg 78%
22:00 +8°C° 0 mm 3 mps 743 mmHg 79%
23:00 +8°C° 0 mm 3 mps 743 mmHg 81%
Show more